Miscellaneous Local Product
Issued by NWS North Platte, NE

Home | Current Version | Previous Version | Text Only | Print | Product List | Glossary On
Versions: 1 2 3 4 5 6 7 8 9 10 11 12 13 14 15 16 17 18 19 20 21 22 23 24 25 26 27 28 29 30 31 32 33 34 35 36 37 38 39 40 41 42 43 44 45 46 47 48 49 50
000
AXUS43 KLBF 181710
MISLBF


WESTERN AND NORTH CENTRAL NEBRASKA HOURLY WEATHER ROUNDUP
NATIONAL WEATHER SERVICE NORTH PLATTE NE
1100 AM CST THU DEC 18 2014

***STATIONS NOT REPORTING VARIABLES SUCH AS SKY/WEATHER OR
PRESSURE ARE PROVIDED BY THE NEBRASKA DEPARTMENT OF
ROADS...RAWS...AND APRS NETWORKS...AND ARE NOT UNDER
NATIONAL WEATHER SERVICE QUALITY CONTROL***

...OBSERVATIONS IN AND NEAR THE EASTERN PANHANDLE OF NEBRASKA...

CITY           SKY/WX    TMP DP  RH WIND       PRES   REMARKS
PINE RIDGE     SUNNY     21  16  81 CALM      30.04S
CHADRON        SUNNY     16  13  88 SW7       30.06R WCI   6
ALLIANCE       SUNNY     16  13  88 W6        30.04R WCI   7
SIDNEY         SUNNY     26  20  77 NW10      30.05R WCI  16
WHITECLAY        N/A     24  15  69 E5          N/A  WCI  18
CRESCENT LAKE    N/A     20  17  86 CALM        N/A
LISCO            N/A     16  10  78 SW5         N/A  WCI   9
BIG SPRINGS      N/A     20  18  92 W6          N/A  WCI  12
$$

...OBSERVATIONS IN NORTH CENTRAL NEBRASKA...

CITY           SKY/WX    TMP DP  RH WIND       PRES   REMARKS
VALENTINE      CLOUDY    26  22  84 SW7       30.09R WCI  18
THEDFORD       CLOUDY    27  25  91 SW7       30.10R WCI  19
AINSWORTH      CLOUDY    26  23  90 SW3       30.10S
O`NEILL        CLOUDY    25  24  96 S6        30.16F FOG     WCI  18
ORD            CLOUDY    25  22  88 S6        30.17R FOG     WCI  18
BROKEN BOW     CLOUDY    26  24  92 S9        30.13S WCI  17
BROWNLEE         N/A     24  22  92 CALM        N/A
SPRINGVIEW       N/A     27  23  85 SW3         N/A
BREWSTER         N/A     29  27  92 S7          N/A  WCI  22
ROSE             N/A     28  28 100 MISG        N/A
SARGENT          N/A     25  23  93 CALM        N/A
COMSTOCK         N/A     30  28  93 S7          N/A  WCI  23
CHAMBERS         N/A     27  22  82 CALM        N/A
$$

...OBSERVATIONS IN SOUTHWEST NEBRASKA AND FAR NORTHEAST COLORADO...

CITY           SKY/WX    TMP DP  RH WIND       PRES   REMARKS
WRAY           FAIR      18  17  95 W5        30.10R WCI  11
IMPERIAL       CLOUDY    25  23  92 W7        30.11R FOG     WCI  17
OGALLALA       FOG       21  20  96 W8        30.09F VSB 1   WCI  11
NORTH PLATTE   CLOUDY    26  23  88 SW8       30.12R WCI  18
MCCOOK         CLOUDY    25  24  96 S3        30.15R
LEXINGTON      CLOUDY    28  24  88 SW6       30.16S WCI  21
PAXTON           N/A     24  23  94 SW6         N/A  WCI  17
BRADY            N/A     25  23  90 CALM        N/A
GOTHENBURG       N/A     26  23  88 W3          N/A
CALLAWAY         N/A     25  24  96 CALM        N/A
$$

...NORTH PLATTE AREA...

CITY           SKY/WX    TMP DP  RH WIND       PRES   REMARKS
AIRPORT        CLOUDY    26  23  88 SW8       30.12R WCI  18
DOWNTOWN         N/A     26  24  91 SW3         N/A
$$

...SOME WEATHER OBSERVATIONS FROM AROUND THE REGION...

CITY           SKY/WX    TMP DP  RH WIND       PRES   REMARKS
DENVER         PTSUNNY   35  30  82 SW3       30.05R
LARAMIE        SUNNY     26  18  71 SW6       30.02R WCI  19
CHEYENNE       SUNNY     36  16  44 W18       30.03R WCI  26
SCOTTSBLUFF    MOSUNNY   10   7  87 NW7       30.08R FOG     WCI  -1
RAPID CITY     MOSUNNY   24  21  88 CALM      30.01S
PIERRE         CLOUDY    24  22  91 SE6       30.11S WCI  17
WINNER         CLOUDY    27  22  81 S8        30.12R WCI  19
SIOUX FALLS    CLOUDY    23  18  81 S8        30.22S WCI  14
OMAHA          LGT SNOW  28  24  85 S6        30.27S FOG     WCI  22
GRAND ISLAND   CLOUDY    26  22  84 S5        30.21R WCI  20
KANSAS CITY    LGT SNOW  31  27  85 E9        30.24S FOG     WCI  23
WICHITA        CLOUDY    33  30  88 N3        30.20S FOG
HAYS           CLOUDY    28  19  69 CALM      30.20R
LIBERAL        CLOUDY    34  28  80 N8        30.16R WCI  27
GOODLAND       CLOUDY    24  23  96 S6        30.11R WCI  17
$$



USA.gov is the U.S. government's official web portal to all federal, state and local government web resources and services.